Tracking 29892 objects as of 21-Nov-2024
HD Live streaming from Space Station
objects crossing your sky now

SL-12 R/B(2)

Track SL-12 R/B(2) now!


NORAD ID: 19776
Int'l Code: 1989-004F
Perigee: 36,345.6 km
Apogee: 36,543.9 km
Inclination: 13.4 °
Period: 1,469.5 minutes
Semi major axis: 42815 km
RCS: 2.5594 m2 (large)
Launch date: January 26, 1989
Source: Commonwealth of Independent States (former USSR) (CIS)
Launch site: TYURATAM MISSILE AND SPACE COMPLEX (TTMTR)

Note: This is a ROCKET BODY
Your satellite tracking list
Your tracking list is empty




NASA's NSSDC Master Catalog

Two Line Element Set (TLE):
1 19776U 89004F   24325.79558619 -.00000114  00000-0  00000-0 0  9994
2 19776  13.4294 338.3924 0023160 123.4904 358.1826  0.97993449112777
Source of the keplerian elements: AFSPC